"Pseudo-MPEC" for P10OD50

Created 2019 Jun 15 19:08:02 UT using Find_Orb

Click here for an explanation of pseudo-MPECs

 
 Astrometry: 
     P10OD50  C2019 05 30pDSA]_3vr,@0EwxU[]O*CNm`s.g`.8^bYB!FsS8]Rj\a%sj$b#,UF52
     P10OD50  C2019 05 30+@C%BV!D#s=02!bV7I[09;hsO17U)vO0tTRP/P-)n=oI%K:(`JBVF52
     P10OD50  C2019 06 02mxOBcfQm#65/AD`NM.lv1K!K.bOPrB(Gdkg;^)v;t1%;U?i]M538F51
     P10OD50  C2019 06 02;5cIQlyI5[JSkoetEZAstrometryHV9ceXredacted;-_B6w]%:,F51
     P10OD50  C2019 06 020-_Yvt]O!Nx@CKSn4?uufe=Uj2s!3ovpxwxw=!tqLN?:GF6v2.b)F51
     P10OD50  C2019 06 02c,;%ah[t71E6.Cg%DaPJipejUclickg(c)15'`voAKa,pwnmslY#F51
     P10OD50  C2019 06 03.30071 16 28 54.04 +04 35 16.2    ~637q       VNEOCPV06
     P10OD50  C2019 06 03.30339 16 28 53.87 +04 35 17.4    ~637q       VNEOCPV06
     P10OD50  C2019 06 03.30607 16 28 53.61 +04 35 20.4    ~637q 21.8 GVNEOCPV06
     P10OD50 KC2019 06 04Is[mi64qS=]4St)go.N!$KoLiBIE4Lheresps`.hnKK(XiVVKJ+)691
     P10OD50 KC2019 06 040OUTqMWp;)C1V`LdN@6SHHv$dR)i7crH8'VcT33opW[Lq-7y'',O691
     P10OD50 KC2019 06 04O(-nZj]LS/tk6PTD=gm3xN_I5vHWTEa\,UqvlCO!qtk!(5J(QHWj691
     P10OD50 KC2019 06 06rFAtcxOb_eon\E`YO;PI,QRAoJ$[kv[2qxdaJe0UY[*N2.5=`V3Z291
     P10OD50 KC2019 06 06g@oXqQDBO/Bj3a+c0dynm1((8oXM]SBo$M:FW#BG6)AG2`FZS1]5291
     P10OD50 KC2019 06 069yM/2Fewfor;CJUi[2e)Hn_joKP;+]explanationhr@BE)TOswj291
     P10OD50  C2019 06 09!_]2J@5rY%h*/]5ldXd^cA.=p'::wpn\-[,MpX,uFj*^YPH7:`kWF51
     P10OD50  C2019 06 09'yuQiE#_:9luEskXY@$I$b)Td@n$f%_e6Fj\#)P=v%Ipt)jSRn;[F51

Station data:
(291) LPL/Spacewatch II  (N31.961669 W111.599905)  US/Arizona.  Observers J.
   V. Scotti, R. S. McMillan. 1.8-m f/2.7 reflector + CCD.
(691) Steward Observatory, Kitt Peak - Spacewatch  (N31.962174 W111.600327)
   US/Arizona.  Observer J. V. Scotti. 0.9-m f/3 reflector + CCD.
(F51) Pan-STARRS 1, Haleakala  (N20.707235 W156.255910)  US/Hawaii.
   Observers N. Primak, A. Schultz, S. Watters, J. Thiel, T. Goggia. Measurer
   PS1 Science Consortium. 1.8-m Ritchey-Chrétien + CCD.
(F52) Pan-STARRS 2, Haleakala  (N20.707384 W156.255910)  US/Hawaii. 1.8-m
   Ritchey-Chrétien + CCD.
(V06) Catalina Sky Survey-Kuiper  (N32.416847 W110.732550)  US/Arizona.
   Observers T. A. Pruyne, B. M. Africano, E. J. Christensen, G. A. Farneth,
   D. C. Fuls, A. R. Gibbs, A. D. Grauer, H. Groeller, J. A. Johnson, R. A.
   Kowalski, S. M. Larson, G. J. Leonard, R. L. Seaman, F. C. Shelly. 1.55-m
   reflector + CCD.

Orbital elements:  P10OD50
   Perihelion 2018 Mar 27.745366 +/- 2.44 TT = 17:53:19 (JD 2458205.245366)
Epoch 2019 Jun  9.0 TT = JDT 2458643.5   Earth MOID: 0.7553   AutoNEOCP
M 165.06407984 +/- 1.0              (J2000 ecliptic)
n   0.37663966 +/- 0.000309         Peri.  236.66890 +/- 0.7
a   1.89897250 +/- 0.00104          Node   207.47282 +/- 0.09
e   0.1067164 +/- 0.00108           Incl.   20.59770 +/- 0.057
P   2.62/955.80d           H 20.0   G  0.15   U  7.4  
q 1.69632098 +/- 0.00118    Q 2.10162402 +/- 0.00318
From 17 observations 2019 May 30-June 9; mean residual 0".43
Residuals in arcseconds: 
190530 F52  .25+  .04-    190603 V06  .66+  1.0-    190606 291  .28-  .18+    
190530 F52  .37-  .38+    190603 V06  .93+  1.4-    190606 291  .18-  .01+    
190602 F51  .09-  .07+    190603 V06  .15-  .05+    190606 291  .22-  .24+    
190602 F51  .07-  .15-    190604 691  .26+  .59+    190609 F51  .05+  .09-    
190602 F51  .15-  .08+    190604 691  .59-  .38+    190609 F51  .22+  .12-    
190602 F51  .07-  .13+    190604 691  .28-  .68+    

Ephemerides (geocentric):
Date (UTC) HH   RA              Dec         delta   r     elong  mag " sig PA
---- -- -- --  -------------   -----------  ------ ------ -----  --- ---- ---
2019 06 15 19  16 15 52.642   +06 06 11.27  1.1839 2.0978 144.9 22.8 1.72  11
2019 06 15 20  16 15 50.318   +06 06 23.07  1.1841 2.0978 144.9 22.8 1.73  11
2019 06 15 21  16 15 47.997   +06 06 34.83  1.1843 2.0978 144.8 22.8 1.75  11
2019 06 15 22  16 15 45.678   +06 06 46.55  1.1845 2.0978 144.8 22.8 1.76  11
2019 06 15 23  16 15 43.362   +06 06 58.23  1.1847 2.0978 144.8 22.8 1.78  10
2019 06 16 00  16 15 41.048   +06 07 09.86  1.1849 2.0978 144.7 22.8 1.79  10
2019 06 16 01  16 15 38.736   +06 07 21.46  1.1851 2.0978 144.7 22.8 1.80  10
2019 06 16 02  16 15 36.427   +06 07 33.01  1.1853 2.0978 144.7 22.8 1.82  10
2019 06 16 03  16 15 34.120   +06 07 44.52  1.1855 2.0978 144.6 22.8 1.83  10
2019 06 16 04  16 15 31.815   +06 07 55.99  1.1857 2.0979 144.6 22.8 1.85  10
2019 06 16 05  16 15 29.513   +06 08 07.41  1.1859 2.0979 144.6 22.8 1.86  10
2019 06 16 06  16 15 27.213   +06 08 18.80  1.1861 2.0979 144.5 22.8 1.88  10
2019 06 16 07  16 15 24.916   +06 08 30.14  1.1863 2.0979 144.5 22.8 1.89  10
2019 06 16 08  16 15 22.621   +06 08 41.44  1.1865 2.0979 144.5 22.8 1.91  10
2019 06 16 09  16 15 20.328   +06 08 52.71  1.1867 2.0979 144.4 22.8 1.92  10
2019 06 16 10  16 15 18.038   +06 09 03.92  1.1869 2.0979 144.4 22.8 1.93  10
2019 06 16 11  16 15 15.751   +06 09 15.10  1.1871 2.0979 144.4 22.8 1.95  10
2019 06 16 12  16 15 13.465   +06 09 26.24  1.1873 2.0979 144.3 22.8 1.96  10
2019 06 16 13  16 15 11.182   +06 09 37.33  1.1875 2.0979 144.3 22.8 1.98   9
2019 06 16 14  16 15 08.902   +06 09 48.38  1.1877 2.0980 144.3 22.8 1.99   9
2019 06 16 15  16 15 06.624   +06 09 59.40  1.1880 2.0980 144.2 22.8 2.01   9
2019 06 16 16  16 15 04.348   +06 10 10.37  1.1882 2.0980 144.2 22.8 2.02   9
2019 06 16 17  16 15 02.075   +06 10 21.29  1.1884 2.0980 144.2 22.8 2.04   9
2019 06 16 18  16 14 59.804   +06 10 32.18  1.1886 2.0980 144.1 22.8 2.05   9
2019 06 16 19  16 14 57.536   +06 10 43.03  1.1888 2.0980 144.1 22.8 2.07   9
2019 06 16 20  16 14 55.270   +06 10 53.83  1.1890 2.0980 144.1 22.8 2.08   9
2019 06 16 21  16 14 53.007   +06 11 04.59  1.1892 2.0980 144.0 22.8 2.10   9
2019 06 16 22  16 14 50.746   +06 11 15.32  1.1894 2.0980 144.0 22.8 2.11   9
2019 06 16 23  16 14 48.487   +06 11 26.00  1.1896 2.0980 144.0 22.8 2.13   9
2019 06 17 00  16 14 46.231   +06 11 36.63  1.1898 2.0980 143.9 22.8 2.15   9
2019 06 17 01  16 14 43.978   +06 11 47.23  1.1900 2.0981 143.9 22.8 2.16   9
2019 06 17 02  16 14 41.727   +06 11 57.79  1.1903 2.0981 143.9 22.8 2.18   9
2019 06 17 03  16 14 39.478   +06 12 08.30  1.1905 2.0981 143.8 22.8 2.19   8
2019 06 17 04  16 14 37.232   +06 12 18.78  1.1907 2.0981 143.8 22.8 2.21   8
2019 06 17 05  16 14 34.988   +06 12 29.21  1.1909 2.0981 143.8 22.8 2.22   8
2019 06 17 06  16 14 32.747   +06 12 39.60  1.1911 2.0981 143.7 22.8 2.24   8
2019 06 17 07  16 14 30.508   +06 12 49.95  1.1913 2.0981 143.7 22.8 2.25   8
2019 06 17 08  16 14 28.272   +06 13 00.26  1.1915 2.0981 143.7 22.8 2.27   8
2019 06 17 09  16 14 26.038   +06 13 10.52  1.1917 2.0981 143.6 22.8 2.29   8
2019 06 17 10  16 14 23.807   +06 13 20.75  1.1920 2.0981 143.6 22.8 2.30   8
2019 06 17 11  16 14 21.578   +06 13 30.93  1.1922 2.0981 143.6 22.8 2.32   8
2019 06 17 12  16 14 19.352   +06 13 41.08  1.1924 2.0982 143.5 22.8 2.33   8
2019 06 17 13  16 14 17.128   +06 13 51.18  1.1926 2.0982 143.5 22.8 2.35   8
2019 06 17 14  16 14 14.907   +06 14 01.24  1.1928 2.0982 143.5 22.8 2.37   8
2019 06 17 15  16 14 12.688   +06 14 11.26  1.1930 2.0982 143.4 22.8 2.38   8
2019 06 17 16  16 14 10.472   +06 14 21.24  1.1932 2.0982 143.4 22.8 2.40   7
2019 06 17 17  16 14 08.259   +06 14 31.18  1.1935 2.0982 143.4 22.8 2.42   7
2019 06 17 18  16 14 06.048   +06 14 41.08  1.1937 2.0982 143.3 22.8 2.43   7